www.pogodaiklimat.ru

Погода и климат >> Архив погоды >> Россия >> Нижегородская область >> Нижний Новгород аэропорт


ПОГОДА в Нижнем Новгороде аэропорт

  • Прогноз погоды в Нижнем Новгороде аэропорт
  • Монитор погоды в Нижнем Новгороде аэропорт
  • Климат города

АРХИВ ПОГОДЫ в Нижнем Новгороде аэропорт

Время (UTC), дата Ветер
(напр.,м/с)
 
Видим.   Явления Облачность Т
(С)
Тd
(С)
f
(%)
Тe
(С)
Тes
(С)
Комфортность P
(гПа)
Po
(гПа)
Тmin
(С)
Tmax
(С)
R
(мм)
R24
(мм)
S
(см)
03 14.10 В 2-3
{3}
10 км 10/10 180 м
[St]
+7.5 +6.6 94 +5 +5 1024.1 1024.0 +7.1
06 14.10 ЮВ 1-2
{4}
5000 м слабая морось 10/10 90 м
[St]
+6.8 +6.5 98 +6 +6 1024.5 1025.0 +6.6
09 14.10 СЗ 1-2
{2}
8000 м {морось} 10/10 240 м
[Sc]
+8.4 +7.5 94 +8 +8 1024.9 1025.0
12 14.10 штиль 0
{3}
10 км {морось} 10/10 420 м
[Sc]
+9.2 +6.5 83 +8 +8 1023.6 1024.0
15 14.10 Ю 2-3
{3}
6000 м слабый дождь 10/10 600 м
[Sc]
+8.4 +8.0 97 +6 +6 1022.6 1023.0 +9.3 0.9
18 14.10 З 3-5
{5}
4000 м дымка {дождь} 10/10 120 м
[Sc]
+9.1 +8.8 98 +6 +6 1021.3 1021.0
21 14.10 З 3-4
{4}
6000 м 10/10 210 м
[Sc]
+9.6 +9.3 98 +7 +7 1020.6 1021.0
00 15.10 З 2-3
{5}
8000 м 10/10 500 м
[Sc]
+10.9 +10.1 95 +9 +9 1020.9 1021.0
03 15.10 З 4-5
{7}
8000 м 10/10 450 м
[Sc]
+11.6 +10.5 93 +9 +9 1021.3 1021.0 +8.4 0.0
06 15.10 З 4-5
{6}
8000 м 10/10 330 м
[Sc]
+12.6 +10.8 89 +11 +11 1021.9 1022.0
09 15.10 З 3-5
{7}
10 км 3/0
[Ci fib]
+15.9 +11.1 73 +15 +18 1022.1 1022.0
12 15.10 СЗ 5-6
{8}
10 км 3/0
[Ci fib]
+20.3 +9.6 50 +22 +22 комфорт 1021.5 1022.0
15 15.10 З 2-3
{7}
10 км 3/0
[Ci fib]
+13.8 +7.8 67 +13 +13 1022.9 1023.0 +20.4
18 15.10 З 3-4
{6}
10 км ясно +12.0 +8.3 78 +10 +10 1023.1 1023.0
21 15.10 З 3-5
{6}
10 км ясно +10.0 +8.6 91 +8 +8 1023.6 1024.0
00 16.10 З 5-5
{7}
7000 м ясно +9.2 +8.6 96 +6 +6 1023.5 1024.0
03 16.10 З 3-5
{8}
9000 м ясно +8.1 +7.5 96 +5 +5 1023.7 1024.0 +8.1
06 16.10 З 4-6
{6}
10 км 5/0
[Ci fib]
+9.3 +7.9 91 +6 +7 1023.4 1023.0 +7.9
09 16.10 З 4-7
{7}
10 км 6/0
[Ci fib]
+13.7 +8.1 69 +12 +14 1023.1 1023.0
12 16.10 З 4-6
{8}
10 км 8/0
[Ci fib]
+15.9 +8.2 60 +15 +16 1022.1 1022.0
15 16.10 ЮЗ 3-4
{6}
10 км 8/0
[Ci fib]
+11.7 +6.4 70 +10 +10 1021.4 1021.0 +16.3
18 16.10 ЮЗ 2-3
{6}
10 км 6/0
[Ci fib]
+9.6 +4.6 71 +8 +8 1020.8 1021.0
21 16.10 З 3-4
{8}
10 км 6/0
[Ci fib]
+9.7 +4.7 71 +8 +8 1019.5 1020.0
00 17.10 З 3-5
{7}
10 км 6/0
[Ci fib]
+8.2 +4.4 77 +6 +6 1019.2 1019.0
03 17.10 З 3-4
{6}
10 км 3/0
[Ci fib]
+6.8 +4.3 84 +4 +4 1020.1 1020.0 +6.8
06 17.10 З 3-5
{7}
10 км 6/3 600 м
[Sc Ac trans]
+9.3 +5.7 78 +7 +7 1021.3 1021.0 +6.7
09 17.10 С 6-9
{9}
10 км 6/4 600 м
[Cu hum Ci fib]
+13.3 +6.4 63 +11 +12 1022.7 1023.0
12 17.10 С 5-7
{9}
10 км 1/1 1000 м
[Cu hum]
+13.5 +5.4 58 +12 +12 1024.0 1024.0
15 17.10 С 1-1
{7}
10 км 3/0
[Ci fib]
+7.6 +4.0 78 +7 +7 1025.4 1025.0 +14.0
18 17.10 штиль 0-1
{2}
9000 м ясно +3.4 +2.5 94 +2 +2 1026.4 1026.0
21 17.10 штиль 0
{1}
9000 м ясно +1.5 +0.9 96 0 0 1026.6 1027.0
00 18.10 штиль 0
{1}
10 км ясно +0.7 +0.1 96 -1 -1 1026.4 1026.0
03 18.10 Ю 2-3
{5}
10 км 8/0
[Ac trans]
+4.9 +4.0 94 +2 +2 1025.3 1025.0 +0.3
06 18.10 ЮЗ 2-3
{4}
10 км 4/0
[Ac trans]
+8.6 +6.4 86 +7 +7 1024.4 1024.0
09 18.10 Ю 4-5
{6}
10 км ясно +13.0 +8.1 72 +11 +13 1022.7 1023.0
12 18.10 ЮЗ 5-6
{8}
10 км ясно +15.0 +8.0 63 +14 +14 1020.3 1020.0
15 18.10 Ю 3-4
{7}
10 км ясно +11.1 +7.8 80 +9 +9 1019.1 1019.0 +15.5
18 18.10 ЮЗ 5-6
{7}
10 км 6/0
[Ac trans]
+11.9 +7.4 74 +10 +10 1018.1 1018.0
21 18.10 ЮЗ 3-4
{6}
10 км 4/0
[Ac trans]
+7.9 +6.0 88 +5 +5 1017.5 1018.0
00 19.10 ЮЗ 3-3
{5}
8000 м 4/0
[Ac trans]
+6.1 +5.1 93 +3 +3 1016.8 1017.0
03 19.10 Ю 3-3
{4}
3000 м местами туман поземный 3/0
[Ac trans]
+5.5 +5.2 98 +2 +2 1015.8 1016.0 +4.4
06 19.10 ЮЗ 4-5
{5}
9000 м 5/0
[Ci fib]
+10.7 +8.5 86 +8 +9 1014.7 1015.0
09 19.10 ЮЗ 5-8
{8}
10 км 5/1 1000 м
[Cu hum Ac trans]
+16.2 +9.9 66 +15 +16 1013.3 1013.0
12 19.10 ЮЗ 5-9
{10}
10 км 8/1 1000 м
[Cu hum Ac trans Ci fib]
+17.4 +10.3 63 +17 +17 1012.1 1012.0
15 19.10 ЮЗ 3-4
{7}
10 км 9/5 1000 м
[Sc Ci fib]
+14.5 +10.5 77 +14 +14 1012.8 1013.0 +17.9
18 19.10 СЗ 2-3
{4}
10 км 9/5 600 м
[Sc Ci fib]
+12.9 +9.0 77 +12 +12 1013.4 1013.0
21 19.10 СЗ 2-3
{6}
10 км в посл. час дождь 10/6 900 м
[Sc Ac As]
+9.5 +8.1 91 +8 +8 1014.1 1014.0
00 20.10 З 3-4
{4}
10 км {дождь} 3/0
[Ci fib]
+6.3 +5.4 94 +3 +3 1014.5 1015.0
03 20.10 З 3-4
{5}
10 км 3/0
[Ci fib]
+4.5 +4.1 97 +1 +1 1015.2 1015.0 +4.4 0.7
06 20.10 З 3-5
{5}
10 км 4/1 200 м
[Frnb Ci fib]
+5.3 +3.8 90 +2 +2 1016.4 1016.0 +3.5
09 20.10 СЗ 5-7
{10}
10 км 9/6 840 м
[Sc Ac trans]
+7.6 +2.3 69 +4 +4 1017.6 1018.0
12 20.10 СЗ 4-6
{10}
10 км 9/9 930 м
[Sc]
+7.8 +2.5 69 +5 +5 1018.3 1018.0
15 20.10 З 3-4
{9}
10 км 8/8 800 м
[Sc]
+6.1 +2.0 75 +3 +3 1019.7 1020.0 +8.0
18 20.10 З 2-3
{5}
10 км 5/0
[Ac trans]
+4.4 +2.1 85 +2 +2 1020.8 1021.0
21 20.10 штиль 0-2
{5}
10 км 4/0
[Ac trans Ci fib]
+2.1 +1.7 97 +1 +1 1021.6 1022.0
00 21.10 нст 1-2
{3}
10 км 8/1 200 м
[Frnb Ac trans]
+2.4 +2.1 98 +1 +1 1022.5 1023.0

 

Местоположение метеостанции Нижний Новгород аэропорт (Нижегородская область, Россия): широта 56.22 долгота 43.77 высота над уровнем моря 77 м.

В архиве по умолчанию представлена погода в Нижнем Новгороде аэропорт за последнюю неделю. Архивные данные за месяц целиком и за предыдущие месяцы, начиная с января 2011 года, Вы можете получить, выбрав интересующий диапазон дат из раскрывающегося списка и нажав кнопку "Ввод!".


*Определитесь, кто Вы:
робот инопланетянин человек

Внимание! Время в таблицах - всемирное. Для получения местного времени необходимо прибавить поправку, которая в Нижнем Новгороде аэропорт равна 3 ч.

Смотрите также архив погоды в соседних городах и на ближайших метеорологических станциях:

Погода в Нижнем Новгороде (Нижегородская область, Россия) (15 км)
Погода в Балахне (Нижегородская область, Россия) (45 км)
Погода в Дальнем Константиново (Нижегородская область, Россия) (51 км)
Погода в Павлово (Нижегородская область, Россия) (55 км)
Погода в Волжской ГМО (Нижегородская область, Россия) (55 км)
Погода в Семенове (Нижегородская область, Россия) (73 км)
Погода в Лысково (Нижегородская область, Россия) (82 км)
Погода в Арзамасе (Нижегородская область, Россия) (95 км)
Погода в Вязниках (Владимирская область, Россия) (99 км)
Погода в Воскресенском (Нижегородская область, Россия) (121 км)

Пояснения к столбцам:

Ветер - указаны скорость ветра в м/с - средняя за 10 мин, порывы в срок и между сроками (в фигурных скобках) и направление, откуда дует ветер: С - северный, СВ - северо-восточный, В - восточный, ЮВ - юго-восточный, Ю - южный, ЮЗ - юго-западный, З - западный, СЗ - северо-западный.
Видимость - горизонтальная дальность видимости в метрах или километрах. При видимости от 1 до 10 км при отсутствии осадков обычно наблюдается дымка, при ухудшении видимости до 1 км и менее - туман. В сухую погоду видимость может ухудшаться дымом, пылью или мглою.
Явления - указаны атмосферные явления, наблюдавшиеся в срок или в последний час перед сроком; фигурными скобками обозначены явления, наблюдавшиеся между сроками (за 1-3 часа до срока); квадратными скобками обозначены град или гололедные отложения с указанием их диаметра в мм.
Облачность - указаны через наклонную черту общая и нижняя облачность в баллах и высота нижней границы облаков в метрах; квадратными скобками обозначены формы облаков: Ci - перистые, Cs - перисто-слоистые, Cc - перисто-кучевые, Ac - высококучевые, As - высокослоистые, Sc - слоисто-кучевые, Ns - слоисто-дождевые, Cu - кучевые, Cb - кучево-дождевые. Подробнее классификацию облаков см. в Атласе облаков (PDF).
T - Температура воздуха - температура, измеренная на высоте 2 м над землей.
Td - Температура точки росы - температура, при понижении до которой содержащийся в воздухе водяной пар достигнет насыщения.
f - Относительная влажность воздуха - влажноcть воздуха, измеренная на высоте 2 м над землей.
Te - Эффективная температура - температура, которую ощущает одетый по сезону человек в тени. Характеристика душности погоды. При расчете учитывается влияние влажности воздуха и скорости ветра на теплоощущения человека.
Tes - Эффективная температура на солнце - температура, которую ощущает человек, с поправкой на солнечный нагрев. Характеристика знойности погоды. Зависит от высоты солнца над горизонтом, облачности и скорости ветра. Ночью, в пасмурную погоду, а также при ветре 12 м/с и более поправка равна нулю.
P - Атмосферное давление - приведенное к уровню моря атмосферное давление.
Po - Атмосферное давление - измеренное на уровне метеостанции атмосферное давление.
Tmin - Минимальная температура - минимум температуры воздуха на высоте 2 м над землей.
Tmax - Максимальная температура - максимум температуры воздуха на высоте 2 м над землей.
R - Количество осадков - Количество выпавших осадков за период времени, мм. При наведении курсора мыши на число - период времени, за который выпало указанное количество осадков.
R24 - Количество осадков - Количество выпавших осадков за 24 часа, мм.
S - Снежный покров - Высота снежного покрова, см. При наведении курсора мыши на число - состояние снежного покрова и степень покрытия местности в баллах.